Location: Tierra Monte Subdivision
(35.2092°N, 106.4864°W)
Time: 22:02:43
(UTC+00:00)

STARLINK-1124 - Pass Details

Date: 30 March 2020
Orbit: 549 x 551 km, 53.0° (Epoch: 05 June)

Event Time Altitude Azimuth Distance (km) Brightness Sun altitude
Rises 03:30:47 0° 315° (NW) 2,800 8.4 -25.4°
Reaches altitude 10° 03:33:04 10° 316° (NW) 1,894 7.2 -25.8°
Enters shadow 03:36:25 52° 327° (NNW) 716 4.4 -26.5°
